{"data":{"norad_id":66475,"epoch":"2026-05-24T22:24:42.217344Z","epoch_age_seconds":80903,"freshness":"FRESH","line1":"1 66475U 25262V   26144.93382196  .00008972  00000+0  33513-3 0  9996","line2":"2 66475  43.0031 225.8662 0001166 281.7270  78.3451 15.27581066 30566","mean_motion":15.27581066,"eccentricity":0.0001166,"inclination_deg":43.0031,"raan_deg":225.8662,"arg_perigee_deg":281.727,"mean_anomaly_deg":78.3451,"bstar":0.00033513,"rev_number":3056,"period_min":94.266682930986,"perigee_km":482.2458901274,"apogee_km":483.84591798063,"semimajor_km":6861.182904054,"source":"CELESTRAK","updated_at":"2026-05-25T13:38:21.239174Z"}}